Regional Weather Roundup
Issued by NWS Wakefield, VA

Home | Current Version | Previous Version | Graphics & Text | Print | Product List | Glossary On
Versions: 1 2 3 4 5 6 7 8 9 10 11 12 13 14 15 16 17 18 19 20 21 22 23 24 25 26 27 28
000
ASUS41 KAKQ 221015
RWRAKQ

REGIONAL WEATHER ROUNDUP
NATIONAL WEATHER SERVICE WAKEFIELD VA
500 AM EST WED FEB 22 2017

Note: "fair" indicates few or no clouds below 12,000 feet with no
significant weather and/or obstructions to visibility. * = Denotes
station may not report precipitation (e.g., rain,snow,etc.),
thunder or fog.

VAZ042-051-052>054-056-221100-
NORTHERN VIRGINIA

CITY           SKY/WX    TMP DP  RH WIND       PRES   REMARKS
WASH NATIONAL  CLOUDY    46  41  82 S9        30.04S
DULLES         CLOUDY    45  37  73 S5        30.02S
FORT BELVOIR   CLOUDY    45  38  77 SE3       30.03S
QUANTICO       CLOUDY    45  42  89 S8        30.05S
FREDERICKSBRG* CLOUDY    44  40  85 S3        30.04S
STAFFORD*      CLOUDY    43  39  85 CALM      30.07F
WARRENTON      CLOUDY    48  38  67 S3        30.01S
CULPEPER*      LGT RAIN  48  42  79 CALM      30.03S
MANASSAS*      CLOUDY    47  39  74 CALM      30.03S
LEESBURG*      CLOUDY    46  41  81 MISG      30.03S
WINCHESTER     CLOUDY    43  36  75 CALM      29.99S
FRONT ROYAL*   CLOUDY    54  39  58 SW7       29.97S
LURAY*         CLOUDY    52  43  71 W5        30.00S
$$

VAZ048-049-060>072-079>083-221100-
CENTRAL AND SOUTH CENTRAL VIRGINIA

CITY           SKY/WX    TMP DP  RH WIND       PRES   REMARKS
RICHMOND       CLOUDY    43  41  93 CALM      30.04S
CHESTERFIELD*  FAIR      39  23  52 CALM      30.06S
PETERSBURG*    MOCLDY    36  35  96 CALM      30.05F
HANOVER        PTCLDY    41  37  86 S3        30.05F
TAPPAHANNOCK*  PTCLDY    39  39 100 CALM      30.05F
QUINTON*       FAIR      40  40 100 MISG      30.05S
CHARLOTTSVILLE CLOUDY    49  39  68 S3        30.01S
GORDONSVILLE*  CLOUDY    45  40  84 CALM      30.02S
ORANGE*        CLOUDY    46  39  76 CALM      30.03S
LOUISA*        PTCLDY    48  45  87 S5        30.01F
BUMPASS*       FAIR      41  40  94 W5        30.04S
FARMVILLE*     CLOUDY    41  40  95 CALM      30.03S
CREWE*         FAIR      39  39 100 CALM      30.04S
FORT PICKETT*  CLOUDY   N/A N/A N/A CALM      30.04S
CHASE CITY*    FAIR      45  43  94 CALM      30.04S
CLARKSVILLE*   CLOUDY    46  46 100 CALM      30.04S
SOUTH HILL*    MOCLDY    43  43  98 CALM      30.09F
LAWRENCEVILLE* CLOUDY    45  43  91 SE3       30.04F
EMPORIA*       MOCLDY    43  41  93 CALM      30.07S
$$

VAZ088>098-221100-
SOUTHEAST VIRGINIA

CITY           SKY/WX    TMP DP  RH WIND       PRES   REMARKS
NORFOLK        MOCLDY    50  47  89 S3        30.05S
VIRGINIA BEACH CLOUDY    50  47  89 S6        30.05F
NORFOLK NAVAL  MOCLDY    49  46  90 S5        30.06F
WEST POINT*    MOCLDY    41  40  95 CALM      30.07S
SALUDA*        FAIR      42  42 100 CALM      30.05S
NEWPORT NEWS   CLOUDY    42  41  96 CALM      30.05F
LANGLEY AFB    CLOUDY    44  43  95 CALM      30.04F
FORT EUSTIS    MOCLDY    44  40  88 CALM      30.02F
WILLIAMSBURG*  MOCLDY    45  43  93 CALM      30.06S
HR EXEC AP*    CLOUDY    46  45  93 S6        30.04F
FRANKLIN*      CLOUDY    44  42  93 CALM      30.06S
US460-WAKEFLD  CLOUDY    45  42  89 CALM      30.05F
$$

VAZ020-022-025-037-045-221100-
WEST CENTRAL AND SOUTHWEST VIRGINIA

CITY           SKY/WX    TMP DP  RH WIND       PRES   REMARKS
STAUNTON*      DRIZZLE   47  42  84 CALM      30.03S
WAYNESBORO*    CLOUDY    47  44  89 CALM      30.01R
HOT SPRINGS VA CLOUDY    45  37  76 W12       30.02S
LYNCHBURG      MOCLDY    44  37  76 CALM      30.04S
DANVILLE       CLOUDY    47  44  90 CALM      30.04S
SOUTH BOSTON*  CLOUDY    42  41  95 CALM      30.04S
MARTINSVILLE   CLOUDY    42  39  88 CALM      30.06R
ROANOKE        CLOUDY    49  39  68 CALM      30.05R
BLACKSBURG     CLOUDY    47  40  78 CALM      30.06R
DUBLIN*        CLOUDY    47  42  83 CALM      30.04R
MARION*        CLOUDY    50  41  71 E5        30.04S
HILLSVILLE*    CLOUDY    48  39  71 CALM      30.02R
RICHLANDS*     DRIZZLE   51  42  69 NE3       29.99S
WISE*          RAIN      52  43  71 CALM      30.00S
ABINGDON*      CLOUDY    55  42  60 E8        29.98S
$$

MDZ021>025-VAZ099-100-221100-
SOUTHERN MARYLAND AND THE DELMARVA PENINSULA

CITY           SKY/WX    TMP DP  RH WIND       PRES   REMARKS
PATUXENT RIVER MOCLDY    43  42  97 CALM      30.04F
BAY BRIDGE APT CLOUDY    45  39  81 S5        30.05S
LEONARDTOWN    MOCLDY    43  37  81 S3        30.05F
DOVER          CLOUDY    41  41 100 CALM      30.04S
GEORGETOWN     PTCLDY    40  37  89 SW3       30.06
EASTON         PTCLDY    44  39  81 SW3       30.08S
CAMBRIDGE      NOT AVBL
SALISBURY      PTCLDY    44  43  96 VRB3      30.06S
OCEAN CITY     CLOUDY    46  44  93 SW6       30.06F
WALLOPS ISLAND MOCLDY    42  42 100 CALM      30.07S
ACCOMACK*      PTCLDY    44  42  94 SE5       30.06S
$$

NCZ012>017-030>032-221100-
NORTH CENTRAL AND EASTERN NORTH CAROLINA

CITY           SKY/WX    TMP DP  RH WIND       PRES   REMARKS
ROANOKE RAPIDS CLOUDY    43  43 100 CALM      30.05F
RALEIGH        MOCLDY    52  47  83 SE9       30.03S
ELIZABETH CITY MOCLDY    49  48  97 CALM      30.06S
AHOSKIE*         N/A     44  43  95 CALM      30.06S
EDENTON*       MOCLDY    51  48  89 CALM      30.06S
CURRITUCK*     MOCLDY    46  46 100 CALM      30.07S
KILL DEVIL HLS NOT AVBL
MANTEO         MOCLDY    46  45  97 S3        30.06F
CAPE HATTERAS  PTCLDY    60  50  69 S7        30.06S
TARBORO*       NOT AVBL
GOLDSBORO      CLOUDY    48  48 100 CALM      30.01F
WASHINGTON     CLOUDY    46  45  96 SE5       30.05F
GREENVILLE     PTCLDY    45  45 100 CALM      30.06S
NEW BERN       FOG       47  47 100 CALM      30.06S VSB 1/2
WILMINGTON     PTCLDY    50  50 100 E3        30.03S
$$

VAZ048-221100-
ELSEWHERE

CITY           SKY/WX    TMP DP  RH WIND       PRES   REMARKS
HARRISBURG PA  CLOUDY    42  37  82 E3        30.02F
BALTIMORE      CLOUDY    43  39  86 SE5       30.03F
ANNAPOLIS      CLOUDY    45  41  86 S6        30.04R
ANDREWS AFB    CLOUDY    45  39  80 S5        30.02S
PHILADELPHIA   CLOUDY    41  36  82 CALM      30.07R
HENDERSON NC   MOCLDY    47  43  86 CALM      30.04S
GREENSBORO     CLOUDY    51  51 100 CALM      30.02S FOG
ROCKY MOUNT    CLOUDY    47  46  97 CALM      30.05S
$$

VAZ100-221100-
MARINE

STATION/POSITION TIME  TEMP    WIND        PRES    WAVE   SWELL
                       AIR SEA DIR/SP/G            HT/PER HT/PER
                 (UTC) (F)     (DEG/KT/KT) (MB)    (FT/S) (FT/S)
CAPE MAY NJ      0942   44 43  140/  3/  4 1017.4F
LEWES DE         0948   45 42  190/  5/  9 1017.4F
OCEAN-CITY-INLET 0948   44 43  200/  3/  5 1018.1F
WACHAPREAGUE VA  0948   46 49     CALM     1017.8F
THOMAS POINT MD  1000   43 43  170/  7/  7   N/A
GOOSES REEF MD   1000   43 42  170/  6/  6 1018.0    1
COVE POINT MD    0948   43     180/  6/  7 1018.0S
SOLOMONS ISLAND  0936   44 43  120/  1/  2   N/A
BISHOPS HEAD MD  0948   44 47  160/  4/  5 1017.9F
PINEY POINT MD   0948          150/  3/  4   N/A
POTOMAC MD       1000   44 45  140/  2/  2 1016.7    0
CAMBRIDGE MD     0948   44 42  160/  3/  5 1016.8S
LEWISETTA VA     0948   44 47  210/  3/  3 1017.3F
RAPPAHANNOCK LGT 0948          110/  2/  2 1018.3F
YORK RVR RNG VA  0948   46     190/  1/  1 1016.9F
YORKTOWN VA      0948   45 46   CALM  /  1 1017.2F
JAMESTOWN VA     1000   46 49   CALM  /  2   N/A     0
DOMINION TERM VA 0948   49     160/  3/  4 1017.6F
KIPTOPEKE VA     0948      46  160/  5/  6   N/A
CHES BAY BRIDGE  0936   49 46  170/  7/  8 1017.5F
CAPE HENRY VA    0936   52     170/  8/ 11   N/A
WILLOUBY STN VA  0936   49     160/  4/  4 1018.4F
S CRANEY ISL VA  0936   49     190/  4/  4 1017.4F
CAPE HENRY BUOY  0942      48                N/A     3/ 9
OFFSHORE WE BUOY 0951      47                N/A     3/ 9
64NM E OF VA BCH 0950   55 53  190/  6/  8 1017.7F   4/ 9   3/ 9
DUCK PIER NC     0936   49 48  150/  5/  6 1017.5S
44100 DUCK FRF   0935      48                N/A     3/ 9
44056 DUCK FRF   0930      48                N/A     3/ 8
OREGON INLET NC  0936   52 51  120/  3/  4 1018.0S
HATTERAS NC      0936   61 58  150/  5/  6 1017.5F
DIAMOND SHLS NC  0950   64 74  180/  6/  8 1018.2F   4/ 9   3/ 9
CAPE LOOKOUT NC  0900   62     120/  7/  7 1017.0F
$$




USA.gov is the U.S. government's official web portal to all federal, state and local government web resources and services.